Location: Marcé
(47.5801°N, 0.3280°W)
Time: 16:36:02
(UTC+01:00)

SR - Pass Details

Date: 07 December 2021
Orbit: 582 x 872 km, 66.7° (Epoch: 22 January)

Event Time Altitude Azimuth Distance (km) Brightness Sun altitude
Rises 01:31:18 0° 257° (WSW) 2,912 - -63.9°
Reaches altitude 10° 01:34:10 10° 275° (W) 1,969 - -63.7°
Maximum altitude 01:37:22 19° 322° (NW) 1,429 - -63.5°
Drops below altitude 10° 01:40:29 10° 9° (N) 1,920 - -63.3°
Sets 01:43:15 0° 27° (NNE) 2,815 - -63.1°
